Weather in Ratnapura

Sri Lanka     6°41′16″N   80°24′17″E
В апреле 2022 года жителям России запретили посещать сайт meteo.paraplan.net по решению Генеральной прокуратуры. Аудитория сайта уменьшилась в 10 раз. Владельцы сайта не видят смысла в поддержке погодного сервера в таких условиях. Сайт будет закрыт в октябре.
temp.,
°C
wind,
m/s
gust,
m/s
humid.,
%
clouds,
%
prec.,
mm/h
press.,
hPa
HPBL,
m
6 october, thu
thu623:30+20nnw1395100 0.3 1012110
02:30+19nw2596100 0.4 1010219
05:30+19nnw2495100 0.5 1011138
08:30+22wnw358899 0.3 1012542
11:30+24wnw467652 0.8 1011914
14:30+24wnw457474 0.9 1008968
17:30+21nw2591100 1.5 1010364
20:30+20n1393100 0.1 1012144
7 october, fri
fri723:30+20nnw2495100 0.2 1012162
02:30+19nnw139531 0.1 101088
05:30+19n139433 0.1 101093
08:30+23wnw357920 0.1 1012700
11:30+25w456860 0.6 10101128
14:30+25w457290 0.6 10081098
17:30+21wnw359287 1.3 1010412
20:30+20nnw2595100 0.4 1013199
8 october, sat
sat823:30+19n259380 0.8 1012206
02:30+19nnw259591 0.3 1010219
05:30+19nnw259496 0.6 1011186
08:30+22nw358368 0.4 1012635
11:30+24wnw457641 1.3 1011968
14:30+24wnw457689 1.4 1009860
17:30+21wnw359199 1.9 1010426
20:30+20nnw239616 0.1 1012110
9 october, sun
sun923:30+19n139612 0.1 101295
02:30+19n139333 0.0 101094
05:30+18n12938 0.0 101172
08:30+23nw348115 0.0 1012628
11:30+26wnw456434 0.2 10111257
14:30+26wnw456237 0.3 10091291
17:30+23wnw358114 0.4 1010462
20:30+20nnw239840 0.1 1013154
10 october, mon
mon1023:30+20n129452 0.1 101392
02:30+19n119592 0.0 101156
05:30+19n119670 0.1 101251
08:30+24wnw247566 0.0 1013635
11:30+27w346126 0.1 10111320
14:30+26w346373 0.6 10091315
17:30+23w248541 1.4 1010367
20:30+21nw139850 0.1 1013148